| time (UTC) | temp F | wind direction | speed knots | gust knots | rain 1hr in | rain 24hr in | rain mn in | humidity % | barometer mb |
| 20260510223047 | 58 | 4 | 0.0 | 3.5 | 0.00 | 0.00 | 0.00 | 51 | 1024.6 |
| 20260510221514 | 58 | 4 | 0.9 | 7.8 | 0.00 | 0.00 | 0.00 | 52 | 1024.7 |
| 20260510220054 | 58 | 4 | 1.7 | 8.7 | 0.00 | 0.00 | 0.00 | 53 | 1024.8 |
| 20260510214513 | 57 | 4 | 1.7 | 7.8 | 0.00 | 0.00 | 0.00 | 54 | 1024.9 |
| 20260510213100 | 57 | 4 | 1.7 | 4.3 | 0.00 | 0.00 | 0.00 | 55 | 1025.1 |
| 20260510211508 | 56 | 4 | 0.0 | 8.7 | 0.00 | 0.00 | 0.00 | 56 | 1025.2 |
| 20260510210111 | 55 | 4 | 0.0 | 5.2 | 0.00 | 0.00 | 0.00 | 58 | 1025.2 |
| 20260510204521 | 55 | 4 | 0.0 | 4.3 | 0.00 | 0.00 | 0.00 | 58 | 1025.3 |
| 20260510203111 | 54 | 4 | 0.9 | 4.3 | 0.00 | 0.00 | 0.00 | 60 | 1025.3 |
| 20260510201536 | 53 | 4 | 0.9 | 5.2 | 0.00 | 0.00 | 0.00 | 60 | 1025.3 |
| 20260510200128 | 53 | 4 | 0.0 | 4.3 | 0.00 | 0.00 | 0.00 | 61 | 1025.3 |
| 20260510194532 | 53 | 4 | 0.0 | 2.6 | 0.00 | 0.00 | 0.00 | 62 | 1025.3 |
| 20260510193123 | 52 | 4 | 0.9 | 4.3 | 0.00 | 0.00 | 0.00 | 63 | 1025.3 |
| 20260510191547 | 51 | 4 | 0.0 | 0.9 | 0.00 | 0.00 | 0.00 | 65 | 1025.1 |
| 20260510190006 | 51 | 4 | 0.9 | 7.0 | 0.00 | 0.00 | 0.00 | 65 | 1024.9 |
| 20260510184554 | 51 | 4 | 0.0 | 0.0 | 0.00 | 0.00 | 0.00 | 67 | 1024.8 |
| 20260510183026 | 51 | 4 | 0.9 | 4.3 | 0.00 | 0.00 | 0.00 | 68 | 1024.9 |
| 20260510181615 | 51 | 4 | 0.0 | 0.0 | 0.00 | 0.00 | 0.00 | 69 | 1024.9 |
| 20260510180054 | 50 | 4 | 0.0 | 3.5 | 0.00 | 0.00 | 0.00 | 70 | 1024.7 |
| 20260510174503 | 49 | 4 | 0.0 | 1.7 | 0.00 | 0.00 | 0.00 | 73 | 1024.7 |
| 20260510173058 | 48 | 4 | 0.0 | 2.6 | 0.00 | 0.00 | 0.00 | 75 | 1024.6 |
| 20260510171518 | 48 | 4 | 0.0 | 1.7 | 0.00 | 0.00 | 0.00 | 77 | 1024.6 |
| 20260510170119 | 47 | 4 | 1.7 | 5.2 | 0.00 | 0.00 | 0.00 | 78 | 1024.6 |
| 20260510164547 | 47 | 4 | 0.9 | 7.0 | 0.00 | 0.00 | 0.00 | 80 | 1024.6 |
| 20260510163125 | 46 | 4 | 3.5 | 7.8 | 0.00 | 0.00 | 0.00 | 81 | 1024.5 |
| 20260510161547 | 46 | 4 | 3.5 | 8.7 | 0.00 | 0.00 | 0.00 | 84 | 1024.3 |
| 20260510160127 | 44 | 4 | 0.9 | 4.3 | 0.00 | 0.00 | 0.00 | 85 | 1024.0 |
| 20260510154541 | 43 | 4 | 0.0 | 1.7 | 0.00 | 0.00 | 0.00 | 85 | 1024.1 |
| 20260510153132 | 43 | 4 | 0.0 | 0.0 | 0.00 | 0.00 | 0.00 | 85 | 1024.2 |
| 20260510150036 | 43 | 4 | 0.0 | 2.6 | 0.00 | 0.00 | 0.00 | 86 | 1023.7 |
| 20260510144531 | 43 | 4 | 0.0 | 1.7 | 0.00 | 0.00 | 0.00 | 85 | 1023.6 |
| 20260510143039 | 43 | 4 | 0.0 | 0.0 | 0.00 | 0.00 | 0.00 | 86 | 1023.4 |
| 20260510141527 | 42 | 4 | 0.0 | 0.9 | 0.00 | 0.00 | 0.00 | 86 | 1023.4 |
| 20260510140027 | 42 | 4 | 0.0 | 0.0 | 0.00 | 0.00 | 0.00 | 86 | 1023.4 |
| 20260510134524 | 42 | 4 | 0.9 | 4.3 | 0.00 | 0.00 | 0.00 | 86 | 1023.2 |
| 20260510133020 | 42 | 4 | 0.0 | 0.9 | 0.00 | 0.00 | 0.00 | 87 | 1023.2 |
| 20260510131518 | 41 | 4 | 0.0 | 0.9 | 0.00 | 0.00 | 0.00 | 87 | 1022.9 |
| 20260510130021 | 41 | 4 | 0.0 | 1.7 | 0.00 | 0.00 | 0.00 | 87 | 1022.5 |
| 20260510124515 | 41 | 4 | 0.0 | 4.3 | 0.00 | 0.00 | 0.00 | 87 | 1022.5 |
| 20260510123012 | 41 | 4 | 0.0 | 0.0 | 0.00 | 0.00 | 0.00 | 88 | 1022.2 |
| 20260510121508 | 41 | 4 | 0.0 | 0.0 | 0.00 | 0.00 | 0.00 | 88 | 1022.0 |
| 20260510120007 | 41 | 4 | 0.0 | 0.9 | 0.00 | 0.00 | 0.00 | 88 | 1021.7 |
| 20260510114509 | 41 | 4 | 0.0 | 2.6 | 0.00 | 0.00 | 0.00 | 88 | 1021.6 |
| 20260510113108 | 41 | 4 | 0.0 | 0.0 | 0.00 | 0.00 | 0.00 | 88 | 1021.7 |
| 20260510111521 | 41 | 4 | 0.0 | 1.7 | 0.00 | 0.00 | 0.00 | 88 | 1021.6 |
| 20260510110108 | 41 | 4 | 0.0 | 3.5 | 0.00 | 0.00 | 0.00 | 88 | 1021.7 |
| 20260510104530 | 41 | 4 | 0.9 | 3.5 | 0.00 | 0.00 | 0.00 | 88 | 1021.8 |
| 20260510103116 | 41 | 4 | 1.7 | 3.5 | 0.00 | 0.00 | 0.00 | 88 | 1021.8 |
| 20260510101529 | 41 | 4 | 0.9 | 3.5 | 0.00 | 0.00 | 0.00 | 88 | 1021.5 |
| 20260510100116 | 41 | 8 | 0.0 | 4.3 | 0.00 | 0.00 | 0.00 | 87 | 1021.4 |
| 20260510094546 | 42 | 4 | 1.7 | 5.2 | 0.00 | 0.00 | 0.00 | 87 | 1021.3 |
| 20260510093010 | 42 | 4 | 1.7 | 4.3 | 0.00 | 0.00 | 0.00 | 86 | 1021.2 |
| 20260510091613 | 42 | 359 | 1.7 | 5.2 | 0.00 | 0.00 | 0.00 | 86 | 1021.0 |
| 20260510090020 | 42 | 4 | 0.0 | 4.3 | 0.00 | 0.00 | 0.00 | 85 | 1020.8 |
| 20260510084616 | 42 | 4 | 0.9 | 5.2 | 0.00 | 0.00 | 0.00 | 85 | 1020.8 |
| 20260510083032 | 42 | 4 | 3.5 | 7.0 | 0.00 | 0.00 | 0.00 | 83 | 1020.8 |
| 20260510081620 | 43 | 4 | 5.2 | 8.7 | 0.00 | 0.00 | 0.00 | 81 | 1020.7 |
| 20260510080037 | 44 | 4 | 3.5 | 7.8 | 0.00 | 0.00 | 0.00 | 79 | 1020.6 |
| 20260510074630 | 44 | 4 | 7.0 | 12.2 | 0.00 | 0.00 | 0.00 | 79 | 1020.7 |
| 20260510073051 | 44 | 4 | 5.2 | 15.6 | 0.00 | 0.00 | 0.00 | 78 | 1020.6 |
| 20260510071636 | 45 | 4 | 10.4 | 18.2 | 0.00 | 0.00 | 0.00 | 76 | 1020.3 |
| 20260510070055 | 46 | 4 | 11.3 | 17.4 | 0.00 | 0.00 | 0.00 | 74 | 1020.1 |
| 20260510064536 | 46 | 4 | 12.2 | 19.1 | 0.00 | 0.00 | 0.00 | 72 | 1020.0 |
| 20260510063107 | 47 | 10 | 14.8 | 22.6 | 0.00 | 0.00 | 0.00 | 70 | 1019.8 |
| 20260510061552 | 48 | 4 | 13.0 | 20.0 | 0.00 | 0.00 | 0.00 | 69 | 1019.4 |
| 20260510060014 | 49 | 4 | 13.0 | 23.5 | 0.00 | 0.00 | 0.00 | 66 | 1018.9 |
| 20260510054610 | 49 | 4 | 16.5 | 26.9 | 0.00 | 0.00 | 0.00 | 65 | 1018.6 |
| 20260510053035 | 50 | 4 | 13.9 | 23.5 | 0.00 | 0.00 | 0.00 | 62 | 1017.9 |
| 20260510051626 | 51 | 4 | 16.5 | 26.9 | 0.00 | 0.00 | 0.00 | 60 | 1017.8 |
| 20260510050058 | 52 | 4 | 11.3 | 23.5 | 0.00 | 0.00 | 0.00 | 56 | 1017.7 |
| 20260510044508 | 57 | 4 | 16.5 | 24.3 | 0.00 | 0.00 | 0.00 | 43 | 1016.6 |
| 20260510043100 | 60 | 4 | 3.5 | 10.4 | 0.00 | 0.00 | 0.00 | 32 | 1015.1 |
| 20260510041509 | 60 | 4 | 2.6 | 7.0 | 0.00 | 0.00 | 0.00 | 29 | 1014.9 |
| 20260510040051 | 60 | 4 | 4.3 | 9.6 | 0.00 | 0.00 | 0.00 | 30 | 1014.5 |
| 20260510034517 | 59 | 4 | 1.7 | 5.2 | 0.00 | 0.00 | 0.00 | 32 | 1014.7 |
| 20260510033115 | 58 | 4 | 0.9 | 3.5 | 0.00 | 0.00 | 0.00 | 34 | 1014.8 |
| 20260510031532 | 59 | 4 | 0.9 | 4.3 | 0.00 | 0.00 | 0.00 | 33 | 1014.6 |
| 20260510030122 | 59 | 4 | 1.7 | 3.5 | 0.00 | 0.00 | 0.00 | 33 | 1014.3 |
| 20260510024549 | 59 | 4 | 1.7 | 3.5 | 0.00 | 0.00 | 0.00 | 32 | 1014.0 |
| 20260510023003 | 60 | 4 | 1.7 | 4.3 | 0.00 | 0.00 | 0.00 | 32 | 1013.9 |
| 20260510021634 | 61 | 4 | 2.6 | 7.8 | 0.00 | 0.00 | 0.00 | 31 | 1013.9 |
| 20260510020057 | 61 | 4 | 7.0 | 10.4 | 0.00 | 0.00 | 0.00 | 30 | 1013.5 |
| 20260510014632 | 62 | 4 | 3.5 | 7.0 | 0.00 | 0.00 | 0.00 | 29 | 1013.5 |
| 20260510013054 | 62 | 8 | 4.3 | 10.4 | 0.00 | 0.00 | 0.00 | 28 | 1013.2 |
| 20260510011514 | 63 | 4 | 7.8 | 15.6 | 0.00 | 0.00 | 0.00 | 27 | 1012.9 |
| 20260510010105 | 64 | 4 | 8.7 | 13.9 | 0.00 | 0.00 | 0.00 | 26 | 1012.2 |
| 20260510004510 | 64 | 4 | 3.5 | 11.3 | 0.00 | 0.00 | 0.00 | 26 | 1012.0 |
| 20260510003132 | 64 | 4 | 7.0 | 11.3 | 0.00 | 0.00 | 0.00 | 25 | 1011.7 |
| 20260510001539 | 65 | 4 | 6.1 | 17.4 | 0.00 | 0.00 | 0.00 | 25 | 1011.5 |
| 20260510000002 | 69 | 4 | 6.1 | 11.3 | 0.00 | 0.00 | 0.00 | 19 | 1010.9 |
| 20260509234623 | 69 | 4 | 2.6 | 7.0 | 0.00 | 0.00 | 0.00 | 18 | 1010.7 |
| 20260509233034 | 69 | 4 | 2.6 | 8.7 | 0.00 | 0.00 | 0.00 | 20 | 1010.5 |
| 20260509231614 | 70 | 4 | 2.6 | 7.8 | 0.00 | 0.00 | 0.00 | 21 | 1010.6 |
| 20260509230031 | 69 | 4 | 0.9 | 5.2 | 0.00 | 0.00 | 0.00 | 21 | 1010.5 |
| 20260509224621 | 69 | 4 | 0.9 | 7.8 | 0.00 | 0.00 | 0.00 | 22 | 1010.5 |